Location: Blackrock Ranger Station
(36.0936°N, 118.2611°W)
Time: 08:34:14
(UTC-07:00)

AO-7 - Pass Details

Date: 18 February 2026
Orbit: 1440 x 1458 km, 102.0° (Epoch: 15 March)

Event Time Altitude Azimuth Distance (km) Brightness Sun altitude
Rises 05:47:05 0° 22° (NNE) 4,558 ? -10.7°
Reaches altitude 10° 05:50:00 10° 28° (NNE) 3,578 ? -10.1°
Maximum altitude 05:58:03 50° 102° (ESE) 1,792 ? -8.5°
Drops below altitude 10° 06:06:03 10° 176° (S) 3,568 ? -6.9°
Sets 06:08:57 0° 181° (S) 4,544 ? -6.3°
